TimeEST,TemperatureF,Dew PointF,Humidity,Sea Level PressureIn,VisibilityMPH,Wind Direction,Wind SpeedMPH,Gust SpeedMPH,PrecipitationIn,Events,Conditions,WindDirDegrees,DateUTC
12:15 AM,60.8,55.4,82,30.28,10.0,East,3.5,-,N/A,,Overcast,80,2013-01-09 05:15:00
1:15 AM,60.8,55.4,82,30.27,10.0,ENE,6.9,-,N/A,,Overcast,70,2013-01-09 06:15:00
1:35 AM,60.8,55.4,82,30.27,10.0,ENE,4.6,-,N/A,,Overcast,70,2013-01-09 06:35:00
1:55 AM,60.8,55.4,82,30.27,10.0,East,6.9,-,N/A,,Overcast,80,2013-01-09 06:55:00
2:15 AM,60.8,53.6,77,30.26,10.0,ENE,8.1,-,N/A,,Overcast,70,2013-01-09 07:15:00
2:35 AM,60.8,53.6,77,30.26,10.0,NE,4.6,-,N/A,,Overcast,50,2013-01-09 07:35:00
2:55 AM,60.8,53.6,77,30.26,10.0,ENE,6.9,-,N/A,,Overcast,70,2013-01-09 07:55:00
3:15 AM,60.8,53.6,77,30.27,10.0,ENE,6.9,-,N/A,,Overcast,70,2013-01-09 08:15:00
3:35 AM,60.8,53.6,77,30.27,10.0,East,5.8,-,N/A,,Overcast,80,2013-01-09 08:35:00
3:55 AM,60.8,55.4,82,30.27,10.0,ENE,6.9,-,N/A,,Overcast,70,2013-01-09 08:55:00
4:15 AM,60.8,55.4,82,30.27,10.0,ENE,4.6,-,N/A,,Overcast,60,2013-01-09 09:15:00
4:35 AM,60.8,55.4,82,30.27,10.0,ENE,5.8,-,N/A,,Overcast,70,2013-01-09 09:35:00
4:55 AM,60.8,55.4,82,30.27,10.0,East,6.9,-,N/A,,Overcast,80,2013-01-09 09:55:00
5:15 AM,60.8,55.4,82,30.27,10.0,ENE,4.6,-,N/A,,Overcast,60,2013-01-09 10:15:00
5:35 AM,60.8,55.4,82,30.27,10.0,ENE,4.6,-,N/A,,Overcast,60,2013-01-09 10:35:00
5:55 AM,59.0,55.4,88,30.28,10.0,NE,3.5,-,N/A,,Overcast,50,2013-01-09 10:55:00
6:15 AM,59.0,55.4,88,30.29,10.0,NE,3.5,-,N/A,,Overcast,40,2013-01-09 11:15:00
6:35 AM,59.0,55.4,88,30.30,10.0,ENE,4.6,-,N/A,,Overcast,60,2013-01-09 11:35:00
6:55 AM,59.0,55.4,88,30.31,10.0,ENE,4.6,-,N/A,,Overcast,60,2013-01-09 11:55:00
7:15 AM,59.0,55.4,88,30.31,10.0,ENE,4.6,-,N/A,,Overcast,60,2013-01-09 12:15:00
7:35 AM,59.0,55.4,88,30.31,10.0,ENE,5.8,-,N/A,,Overcast,70,2013-01-09 12:35:00
8:15 AM,59.0,55.4,88,30.33,10.0,ENE,6.9,-,N/A,,Overcast,70,2013-01-09 13:15:00
8:35 AM,59.0,55.4,88,30.33,10.0,ENE,6.9,-,N/A,,Overcast,70,2013-01-09 13:35:00
8:55 AM,59.0,55.4,88,30.35,10.0,East,6.9,-,N/A,,Overcast,80,2013-01-09 13:55:00
9:15 AM,59.0,55.4,88,30.35,10.0,East,5.8,-,N/A,,Overcast,80,2013-01-09 14:15:00
9:35 AM,60.8,55.4,82,30.35,10.0,East,5.8,-,N/A,,Overcast,80,2013-01-09 14:35:00
9:55 AM,60.8,55.4,82,30.36,10.0,East,5.8,-,N/A,,Overcast,90,2013-01-09 14:55:00
10:15 AM,60.8,57.2,88,30.36,10.0,East,8.1,-,N/A,,Overcast,80,2013-01-09 15:15:00
10:35 AM,60.8,57.2,88,30.36,10.0,ENE,8.1,-,N/A,Rain,Light Rain,70,2013-01-09 15:35:00
10:55 AM,60.8,57.2,88,30.36,10.0,East,3.5,-,N/A,,Overcast,80,2013-01-09 15:55:00
11:15 AM,62.6,59.0,88,30.35,10.0,ENE,5.8,-,N/A,,Overcast,60,2013-01-09 16:15:00
11:35 AM,60.8,59.0,94,30.34,10.0,East,6.9,-,N/A,Rain,Light Rain,80,2013-01-09 16:35:00
11:55 AM,60.8,59.0,94,30.34,7.0,East,5.8,-,N/A,Rain,Rain,80,2013-01-09 16:55:00
12:15 PM,60.8,60.8,100,30.33,5.0,ENE,3.5,-,N/A,Rain,Light Rain,60,2013-01-09 17:15:00
12:35 PM,60.8,59.0,94,30.32,7.0,ENE,4.6,-,N/A,,Overcast,60,2013-01-09 17:35:00
12:55 PM,62.6,60.8,94,30.31,7.0,East,4.6,-,N/A,,Overcast,80,2013-01-09 17:55:00
1:15 PM,62.6,60.8,94,30.30,10.0,East,6.9,-,N/A,,Overcast,80,2013-01-09 18:15:00
1:35 PM,64.4,60.8,88,30.30,10.0,East,5.8,-,N/A,,Overcast,80,2013-01-09 18:35:00
1:55 PM,66.2,62.6,88,30.28,10.0,East,6.9,-,N/A,,Overcast,80,2013-01-09 18:55:00
2:15 PM,68.0,62.6,83,30.28,10.0,East,5.8,-,N/A,,Overcast,100,2013-01-09 19:15:00
2:35 PM,69.8,62.6,78,30.29,10.0,ESE,3.5,-,N/A,,Overcast,110,2013-01-09 19:35:00
2:55 PM,69.8,62.6,78,30.29,10.0,East,3.5,-,N/A,,Overcast,80,2013-01-09 19:55:00
3:15 PM,69.8,64.4,83,30.29,10.0,East,3.5,-,N/A,,Overcast,90,2013-01-09 20:15:00
3:35 PM,69.8,64.4,83,30.29,10.0,East,3.5,-,N/A,,Overcast,90,2013-01-09 20:35:00
3:55 PM,69.8,64.4,83,30.29,10.0,ENE,4.6,-,N/A,,Overcast,70,2013-01-09 20:55:00
4:15 PM,69.8,64.4,83,30.29,10.0,ENE,4.6,-,N/A,,Overcast,60,2013-01-09 21:15:00
4:35 PM,69.8,64.4,83,30.29,10.0,ENE,5.8,-,N/A,,Overcast,70,2013-01-09 21:35:00
4:55 PM,69.8,64.4,83,30.29,10.0,ENE,5.8,-,N/A,,Overcast,70,2013-01-09 21:55:00
5:15 PM,69.8,64.4,83,30.29,10.0,East,5.8,-,N/A,,Scattered Clouds,80,2013-01-09 22:15:00
5:35 PM,69.8,62.6,78,30.29,10.0,ENE,3.5,-,N/A,,Clear,60,2013-01-09 22:35:00
5:55 PM,68.0,62.6,83,30.29,10.0,ENE,3.5,-,N/A,,Clear,70,2013-01-09 22:55:00
6:15 PM,66.2,62.6,88,30.29,10.0,ENE,3.5,-,N/A,,Clear,70,2013-01-09 23:15:00
6:35 PM,68.0,62.6,83,30.30,10.0,ENE,3.5,-,N/A,,Mostly Cloudy,60,2013-01-09 23:35:00
6:55 PM,66.2,62.6,88,30.30,10.0,East,5.8,-,N/A,,Mostly Cloudy,80,2013-01-09 23:55:00
7:15 PM,66.2,62.6,88,30.31,10.0,ENE,5.8,-,N/A,,Mostly Cloudy,60,2013-01-10 00:15:00
7:35 PM,66.2,64.4,94,30.32,10.0,ENE,4.6,-,N/A,,Overcast,70,2013-01-10 00:35:00
7:55 PM,66.2,62.6,88,30.32,10.0,ENE,4.6,-,N/A,,Overcast,70,2013-01-10 00:55:00
8:15 PM,64.4,62.6,94,30.33,10.0,ENE,3.5,-,N/A,,Mostly Cloudy,60,2013-01-10 01:15:00
8:35 PM,64.4,62.6,94,30.33,10.0,Calm,Calm,-,N/A,,Mostly Cloudy,0,2013-01-10 01:35:00
8:55 PM,64.4,62.6,94,30.34,10.0,NE,3.5,-,N/A,,Mostly Cloudy,50,2013-01-10 01:55:00
9:15 PM,64.4,62.6,94,30.34,10.0,NE,3.5,-,N/A,,Overcast,50,2013-01-10 02:15:00
9:35 PM,64.4,62.6,94,30.34,10.0,Calm,Calm,-,N/A,,Overcast,0,2013-01-10 02:35:00
9:55 PM,64.4,62.6,94,30.34,10.0,NE,3.5,-,N/A,,Mostly Cloudy,50,2013-01-10 02:55:00
10:15 PM,64.4,62.6,94,30.35,10.0,ENE,3.5,-,N/A,,Mostly Cloudy,70,2013-01-10 03:15:00
10:35 PM,64.4,62.6,94,30.35,10.0,ENE,3.5,-,N/A,,Overcast,70,2013-01-10 03:35:00
10:55 PM,64.4,62.6,94,30.34,10.0,East,4.6,-,N/A,,Overcast,80,2013-01-10 03:55:00
11:15 PM,64.4,62.6,94,30.34,10.0,East,4.6,-,N/A,,Overcast,80,2013-01-10 04:15:00
11:35 PM,64.4,62.6,94,30.34,10.0,ENE,5.8,-,N/A,,Overcast,70,2013-01-10 04:35:00
11:55 PM,64.4,62.6,94,30.34,10.0,East,5.8,-,N/A,,Overcast,80,2013-01-10 04:55:00